Tracking 19709 objects as of 20-Jun-2019
HD Live streaming from Space Station
objects crossing your sky now

OPS 5113 (NAVSTAR 3)

Track OPS 5113 (NAVSTAR 3) now!
OPS 5113 (NAVSTAR 3) is classified as:


NORAD ID: 11054
Int'l Code: 1978-093A
Perigee: 20,589.3 km
Apogee: 21,073.7 km
Inclination: 64.1 °
Period: 744.2 minutes
Semi major axis: 27202 km
RCS: 0.5283 m2 (medium)
Launch date: October 7, 1978
Source: United States (US)
Launch site: AIR FORCE WESTERN TEST RANGE (AFWTR)
aabbcc
Your satellite tracking list
Your tracking list is empty




NASA's NSSDC Master Catalog

Two Line Element Set (TLE):
1 11054U 78093A   19171.14731097 -.00000080  00000-0  00000+0 0  9997
2 11054  64.0588  14.9774 0089038 230.9936 323.9712  1.93503658291241
Source of the keplerian elements: AFSPC